| time (UTC) | temp C | wind direction | speed KPH | gust KPH | rain 1hr cm | rain 24hr cm | rain mn cm | humidity % | barometer mb |
| 20260906104218 | 16 | 90 | 0.0 | 0.0 | 0.00 | 0.00 | 0.00 | 99 | 1015.2 |
| 20260906103715 | 16 | 88 | 0.0 | 0.0 | 0.00 | 0.00 | 0.00 | 99 | 1015.1 |
| 20260906103211 | 16 | 89 | 0.0 | 0.0 | 0.00 | 0.00 | 0.00 | 99 | 1015.2 |
| 20260906102706 | 16 | 90 | 0.0 | 0.0 | 0.00 | 0.00 | 0.00 | 99 | 1015.1 |
| 20260906102205 | 16 | 90 | 0.0 | 0.0 | 0.00 | 0.00 | 0.00 | 99 | 1014.6 |
| 20260906101700 | 17 | 90 | 0.0 | 0.0 | 0.00 | 0.00 | 0.00 | 99 | 1015.1 |
| 20260906101155 | 17 | 90 | 0.0 | 0.0 | 0.00 | 0.00 | 0.00 | 99 | 1014.9 |
| 20260906100650 | 17 | 89 | 0.0 | 0.0 | 0.00 | 0.00 | 0.00 | 99 | 1014.9 |
| 20260906100145 | 17 | 90 | 0.0 | 0.0 | 0.00 | 0.00 | 0.00 | 99 | 1014.9 |
| 20260906095639 | 17 | 89 | 0.0 | 0.0 | 0.00 | 0.00 | 0.00 | 99 | 1014.7 |
| 20260906095129 | 17 | 91 | 0.0 | 0.0 | 0.00 | 0.00 | 0.00 | 99 | 1014.5 |
| 20260906094628 | 17 | 93 | 0.0 | 0.0 | 0.00 | 0.00 | 0.00 | 99 | 1014.5 |
| 20260906094124 | 17 | 93 | 0.0 | 0.0 | 0.00 | 0.00 | 0.00 | 99 | 1014.4 |
| 20260906093620 | 17 | 94 | 0.0 | 0.0 | 0.00 | 0.00 | 0.00 | 99 | 1014.6 |
| 20260906093120 | 17 | 93 | 0.0 | 0.0 | 0.00 | 0.00 | 0.00 | 99 | 1014.6 |
| 20260906092615 | 17 | 93 | 0.0 | 0.0 | 0.00 | 0.00 | 0.00 | 99 | 1014.6 |
| 20260906092110 | 17 | 93 | 0.0 | 0.0 | 0.00 | 0.00 | 0.00 | 99 | 1014.7 |
| 20260906091606 | 17 | 93 | 0.0 | 0.0 | 0.00 | 0.00 | 0.00 | 99 | 1014.7 |
| 20260906091102 | 17 | 93 | 0.0 | 0.0 | 0.00 | 0.00 | 0.00 | 99 | 1014.5 |
| 20260906090557 | 17 | 93 | 0.0 | 0.0 | 0.00 | 0.00 | 0.00 | 99 | 1014.6 |
| 20260906090056 | 17 | 90 | 0.0 | 0.0 | 0.00 | 0.00 | 0.00 | 99 | 1014.5 |
| 20260906085555 | 17 | 89 | 0.0 | 0.0 | 0.00 | 0.00 | 0.00 | 99 | 1014.4 |
| 20260906085050 | 17 | 90 | 0.0 | 0.0 | 0.00 | 0.00 | 0.00 | 99 | 1014.3 |
| 20260906084545 | 17 | 90 | 0.0 | 0.0 | 0.00 | 0.00 | 0.00 | 99 | 1014.3 |
| 20260906084044 | 17 | 90 | 0.0 | 0.0 | 0.00 | 0.00 | 0.00 | 99 | 1014.4 |
| 20260906083540 | 17 | 90 | 0.0 | 0.0 | 0.00 | 0.00 | 0.00 | 99 | 1014.3 |
| 20260906083039 | 17 | 89 | 0.0 | 0.0 | 0.00 | 0.00 | 0.00 | 99 | 1014.4 |
| 20260906082534 | 17 | 89 | 0.0 | 0.0 | 0.00 | 0.00 | 0.00 | 99 | 1014.2 |
| 20260906082030 | 18 | 89 | 0.0 | 0.0 | 0.00 | 0.00 | 0.00 | 99 | 1014.1 |
| 20260906081526 | 18 | 90 | 0.0 | 0.0 | 0.00 | 0.00 | 0.00 | 99 | 1014.3 |
| 20260906081021 | 18 | 90 | 0.0 | 0.0 | 0.00 | 0.00 | 0.00 | 99 | 1014.4 |
| 20260906080517 | 18 | 89 | 0.0 | 0.0 | 0.00 | 0.00 | 0.00 | 99 | 1014.2 |
| 20260906080014 | 18 | 90 | 0.0 | 0.0 | 0.00 | 0.00 | 0.00 | 99 | 1014.2 |
| 20260906075508 | 18 | 90 | 0.0 | 0.0 | 0.00 | 0.00 | 0.00 | 99 | 1014.2 |
| 20260906075003 | 18 | 90 | 0.0 | 0.0 | 0.00 | 0.00 | 0.00 | 99 | 1014.4 |
| 20260906074457 | 18 | 90 | 0.0 | 0.0 | 0.00 | 0.00 | 0.00 | 99 | 1014.2 |
| 20260906073955 | 18 | 90 | 0.0 | 0.0 | 0.00 | 0.00 | 0.00 | 99 | 1014.3 |
| 20260906073450 | 18 | 89 | 0.0 | 0.0 | 0.00 | 0.00 | 0.00 | 99 | 1014.1 |
| 20260906072946 | 18 | 89 | 0.0 | 0.0 | 0.00 | 0.00 | 0.00 | 99 | 1014.0 |
| 20260906072441 | 18 | 90 | 0.0 | 0.0 | 0.00 | 0.00 | 0.00 | 99 | 1013.9 |
| 20260906071938 | 18 | 90 | 0.0 | 0.0 | 0.00 | 0.00 | 0.00 | 99 | 1014.1 |
| 20260906071433 | 18 | 90 | 0.0 | 0.0 | 0.00 | 0.00 | 0.00 | 99 | 1013.9 |
| 20260906070929 | 18 | 90 | 0.0 | 0.0 | 0.00 | 0.00 | 0.00 | 99 | 1014.2 |
| 20260906070425 | 18 | 90 | 0.0 | 0.0 | 0.00 | 0.00 | 0.00 | 99 | 1014.1 |
| 20260906065920 | 19 | 89 | 0.0 | 0.0 | 0.00 | 0.00 | 0.00 | 99 | 1014.1 |
| 20260906065415 | 19 | 89 | 0.0 | 0.0 | 0.00 | 0.00 | 0.00 | 99 | 1014.1 |
| 20260906064910 | 19 | 91 | 0.0 | 0.0 | 0.00 | 0.00 | 0.00 | 99 | 1014.4 |
| 20260906064406 | 19 | 90 | 0.0 | 0.0 | 0.00 | 0.00 | 0.00 | 99 | 1014.2 |
| 20260906063901 | 19 | 89 | 0.0 | 0.0 | 0.00 | 0.00 | 0.00 | 99 | 1014.3 |
| 20260906063356 | 19 | 91 | 0.0 | 0.0 | 0.00 | 0.00 | 0.00 | 99 | 1014.4 |
| 20260906062851 | 19 | 90 | 0.0 | 0.0 | 0.00 | 0.00 | 0.00 | 99 | 1014.2 |
| 20260906062350 | 19 | 90 | 0.0 | 0.0 | 0.00 | 0.00 | 0.00 | 99 | 1014.3 |
| 20260906061846 | 20 | 95 | 0.0 | 0.0 | 0.00 | 0.00 | 0.00 | 99 | 1014.2 |
| 20260906061342 | 20 | 90 | 0.0 | 0.0 | 0.00 | 0.00 | 0.00 | 99 | 1014.2 |
| 20260906060836 | 20 | 90 | 0.0 | 0.0 | 0.00 | 0.00 | 0.00 | 99 | 1014.2 |
| 20260906060334 | 20 | 90 | 0.0 | 0.0 | 0.00 | 0.00 | 0.00 | 99 | 1014.2 |
| 20260906055830 | 20 | 89 | 0.0 | 1.6 | 0.00 | 0.00 | 0.00 | 99 | 1014.1 |
| 20260906055326 | 20 | 90 | 0.0 | 0.0 | 0.00 | 0.00 | 0.00 | 99 | 1014.2 |
| 20260906054820 | 20 | 122 | 0.0 | 1.6 | 0.00 | 0.00 | 0.00 | 99 | 1014.0 |
| 20260906054315 | 20 | 89 | 0.0 | 1.6 | 0.00 | 0.00 | 0.00 | 99 | 1014.1 |
| 20260906053812 | 20 | 90 | 0.0 | 0.0 | 0.00 | 0.00 | 0.00 | 99 | 1013.8 |
| 20260906053307 | 20 | 90 | 0.0 | 0.0 | 0.00 | 0.00 | 0.00 | 99 | 1013.8 |
| 20260906052802 | 20 | 91 | 0.0 | 0.0 | 0.00 | 0.00 | 0.00 | 99 | 1013.6 |
| 20260906052259 | 20 | 90 | 0.0 | 0.0 | 0.00 | 0.00 | 0.00 | 99 | 1013.9 |
| 20260906051756 | 21 | 91 | 0.0 | 0.0 | 0.00 | 0.00 | 0.00 | 99 | 1013.7 |
| 20260906051255 | 21 | 88 | 0.0 | 0.0 | 0.00 | 0.00 | 0.00 | 99 | 1013.7 |
| 20260906050750 | 21 | 89 | 0.0 | 0.0 | 0.00 | 0.00 | 0.00 | 99 | 1013.7 |
| 20260906050246 | 21 | 89 | 0.0 | 0.0 | 0.00 | 0.00 | 0.00 | 99 | 1013.7 |
| 20260906045744 | 21 | 93 | 0.0 | 0.0 | 0.00 | 0.00 | 0.00 | 99 | 1013.5 |
| 20260906045239 | 21 | 92 | 0.0 | 1.6 | 0.00 | 0.00 | 0.00 | 99 | 1013.6 |
| 20260906044735 | 21 | 95 | 0.0 | 1.6 | 0.00 | 0.00 | 0.00 | 99 | 1013.3 |
| 20260906044229 | 21 | 91 | 0.0 | 0.0 | 0.00 | 0.00 | 0.00 | 99 | 1013.4 |
| 20260906043725 | 21 | 90 | 0.0 | 0.0 | 0.00 | 0.00 | 0.00 | 99 | 1013.3 |
| 20260906043222 | 21 | 91 | 0.0 | 0.0 | 0.00 | 0.00 | 0.00 | 99 | 1013.4 |
| 20260906042721 | 22 | 90 | 0.0 | 0.0 | 0.00 | 0.00 | 0.00 | 99 | 1013.3 |
| 20260906042220 | 22 | 94 | 0.0 | 0.0 | 0.00 | 0.00 | 0.00 | 99 | 1013.3 |
| 20260906041716 | 22 | 90 | 0.0 | 0.0 | 0.00 | 0.00 | 0.00 | 99 | 1013.3 |
| 20260906041211 | 22 | 79 | 1.6 | 1.6 | 0.00 | 0.00 | 0.00 | 98 | 1013.5 |
| 20260906040706 | 22 | 90 | 0.0 | 0.0 | 0.00 | 0.00 | 0.00 | 98 | 1013.4 |
| 20260906040202 | 22 | 90 | 0.0 | 0.0 | 0.00 | 0.00 | 0.00 | 98 | 1013.4 |
| 20260906035657 | 22 | 94 | 0.0 | 0.0 | 0.00 | 0.05 | 0.05 | 98 | 1013.4 |
| 20260906035153 | 22 | 92 | 0.0 | 0.0 | 0.00 | 0.05 | 0.05 | 98 | 1013.4 |
| 20260906034647 | 22 | 92 | 0.0 | 0.0 | 0.00 | 0.05 | 0.05 | 98 | 1013.2 |
| 20260906034141 | 22 | 90 | 0.0 | 0.0 | 0.00 | 0.05 | 0.05 | 98 | 1013.4 |
| 20260906033638 | 22 | 90 | 0.0 | 0.0 | 0.00 | 0.05 | 0.05 | 98 | 1013.3 |
| 20260906033132 | 22 | 91 | 0.0 | 0.0 | 0.00 | 0.05 | 0.05 | 97 | 1013.0 |
| 20260906032629 | 22 | 93 | 0.0 | 0.0 | 0.00 | 0.05 | 0.05 | 97 | 1013.3 |
| 20260906032128 | 22 | 90 | 0.0 | 0.0 | 0.00 | 0.05 | 0.05 | 97 | 1013.4 |
| 20260906031624 | 22 | 90 | 0.0 | 0.0 | 0.00 | 0.05 | 0.05 | 97 | 1013.3 |
| 20260906031119 | 22 | 90 | 0.0 | 0.0 | 0.00 | 0.05 | 0.05 | 97 | 1013.3 |
| 20260906030618 | 22 | 91 | 0.0 | 0.0 | 0.00 | 0.05 | 0.05 | 97 | 1013.3 |
| 20260906030114 | 22 | 90 | 0.0 | 0.0 | 0.00 | 0.05 | 0.05 | 97 | 1013.4 |
| 20260906025613 | 22 | 90 | 0.0 | 0.0 | 0.00 | 0.05 | 0.05 | 96 | 1013.3 |
| 20260906025112 | 22 | 90 | 0.0 | 0.0 | 0.00 | 0.05 | 0.05 | 96 | 1013.4 |
| 20260906024607 | 22 | 91 | 0.0 | 0.0 | 0.00 | 0.05 | 0.05 | 96 | 1013.2 |
| 20260906024101 | 22 | 99 | 0.0 | 0.0 | 0.00 | 0.05 | 0.05 | 96 | 1013.1 |
| 20260906023557 | 22 | 90 | 0.0 | 0.0 | 0.00 | 0.05 | 0.05 | 96 | 1013.3 |
| 20260906023051 | 22 | 90 | 0.0 | 1.6 | 0.00 | 0.05 | 0.05 | 96 | 1013.3 |
| 20260906022547 | 22 | 90 | 0.0 | 0.0 | 0.00 | 0.05 | 0.05 | 95 | 1013.2 |
| 20260906022042 | 22 | 93 | 0.0 | 0.0 | 0.00 | 0.05 | 0.05 | 95 | 1013.1 |
| 20260906021538 | 22 | 90 | 0.0 | 0.0 | 0.00 | 0.05 | 0.05 | 95 | 1013.0 |
| 20260906021037 | 22 | 92 | 0.0 | 1.6 | 0.00 | 0.05 | 0.05 | 95 | 1013.0 |
| 20260906020536 | 22 | 89 | 0.0 | 1.6 | 0.00 | 0.05 | 0.05 | 95 | 1013.1 |
| 20260906020030 | 22 | 93 | 0.0 | 0.0 | 0.00 | 0.05 | 0.05 | 94 | 1013.1 |
| 20260906015529 | 22 | 87 | 1.6 | 3.2 | 0.00 | 0.05 | 0.05 | 94 | 1013.1 |
| 20260906015030 | 22 | 89 | 0.0 | 1.6 | 0.00 | 0.05 | 0.05 | 94 | 1012.8 |
| 20260906014525 | 22 | 92 | 0.0 | 0.0 | 0.00 | 0.05 | 0.05 | 94 | 1012.7 |
| 20260906014020 | 22 | 92 | 0.0 | 1.6 | 0.00 | 0.05 | 0.05 | 95 | 1012.9 |
| 20260906013516 | 22 | 86 | 0.0 | 0.0 | 0.00 | 0.05 | 0.05 | 95 | 1012.8 |
| 20260906013012 | 22 | 88 | 0.0 | 1.6 | 0.00 | 0.05 | 0.05 | 94 | 1012.8 |
| 20260906012507 | 22 | 90 | 0.0 | 1.6 | 0.00 | 0.05 | 0.05 | 94 | 1012.6 |
| 20260906012006 | 22 | 92 | 0.0 | 0.0 | 0.00 | 0.05 | 0.05 | 94 | 1012.4 |
| 20260906011502 | 22 | 92 | 0.0 | 3.2 | 0.00 | 0.05 | 0.05 | 94 | 1012.4 |
| 20260906010956 | 23 | 78 | 0.0 | 1.6 | 0.00 | 0.05 | 0.05 | 94 | 1012.2 |
| 20260906010452 | 23 | 89 | 0.0 | 1.6 | 0.00 | 0.05 | 0.05 | 93 | 1012.4 |
| 20260906005948 | 23 | 128 | 0.0 | 1.6 | 0.00 | 0.05 | 0.05 | 93 | 1012.6 |
| 20260906005441 | 23 | 91 | 0.0 | 0.0 | 0.00 | 0.05 | 0.05 | 93 | 1012.3 |
| 20260906004940 | 23 | 91 | 0.0 | 0.0 | 0.00 | 0.05 | 0.05 | 93 | 1012.1 |
| 20260906004439 | 23 | 84 | 0.0 | 1.6 | 0.00 | 0.05 | 0.05 | 93 | 1012.2 |
| 20260906003936 | 23 | 107 | 1.6 | 1.6 | 0.00 | 0.05 | 0.05 | 94 | 1012.4 |
| 20260906003436 | 23 | 91 | 0.0 | 1.6 | 0.00 | 0.05 | 0.05 | 93 | 1012.2 |
| 20260906002931 | 23 | 92 | 0.0 | 0.0 | 0.00 | 0.05 | 0.05 | 93 | 1012.0 |
| 20260906002431 | 23 | 95 | 0.0 | 1.6 | 0.00 | 0.05 | 0.05 | 94 | 1012.1 |
| 20260906001926 | 23 | 94 | 0.0 | 1.6 | 0.00 | 0.05 | 0.05 | 95 | 1012.1 |
| 20260906001422 | 23 | 96 | 1.6 | 1.6 | 0.00 | 0.05 | 0.05 | 94 | 1011.9 |
| 20260906000917 | 23 | 91 | 0.0 | 3.2 | 0.00 | 0.05 | 0.05 | 94 | 1011.8 |
| 20260906000412 | 23 | 90 | 0.0 | 3.2 | 0.00 | 0.05 | 0.05 | 94 | 1011.8 |
| 20260905235907 | 23 | 90 | 0.0 | 3.2 | 0.00 | 0.05 | 0.05 | 94 | 1011.7 |
| 20260905235407 | 23 | 108 | 1.6 | 3.2 | 0.00 | 0.05 | 0.05 | 93 | 1011.6 |
| 20260905234902 | 23 | 113 | 0.0 | 4.8 | 0.00 | 0.05 | 0.05 | 93 | 1011.6 |
| 20260905234357 | 23 | 91 | 0.0 | 0.0 | 0.00 | 0.05 | 0.05 | 93 | 1011.8 |
| 20260905233847 | 23 | 90 | 0.0 | 3.2 | 0.00 | 0.05 | 0.05 | 93 | 1011.6 |
| 20260905233341 | 24 | 75 | 3.2 | 8.0 | 0.00 | 0.05 | 0.05 | 93 | 1011.5 |
| 20260905232841 | 24 | 90 | 0.0 | 1.6 | 0.00 | 0.05 | 0.05 | 93 | 1011.7 |
| 20260905232337 | 24 | 83 | 0.0 | 3.2 | 0.00 | 0.05 | 0.05 | 93 | 1011.8 |
| 20260905231832 | 24 | 87 | 0.0 | 4.8 | 0.00 | 0.05 | 0.05 | 93 | 1011.6 |
| 20260905231333 | 25 | 87 | 0.0 | 1.6 | 0.00 | 0.05 | 0.05 | 92 | 1011.5 |
| 20260905230829 | 25 | 90 | 0.0 | 0.0 | 0.00 | 0.05 | 0.05 | 92 | 1011.5 |
| 20260905230327 | 25 | 95 | 1.6 | 4.8 | 0.00 | 0.05 | 0.05 | 92 | 1011.2 |
| 20260905225826 | 25 | 87 | 0.0 | 3.2 | 0.00 | 0.05 | 0.05 | 92 | 1011.1 |
| 20260905225322 | 25 | 90 | 1.6 | 3.2 | 0.00 | 0.05 | 0.05 | 92 | 1011.2 |
| 20260905224822 | 26 | 111 | 0.0 | 9.7 | 0.00 | 0.05 | 0.05 | 91 | 1011.2 |
| 20260905224317 | 26 | 133 | 1.6 | 3.2 | 0.00 | 0.05 | 0.05 | 91 | 1011.1 |
| 20260905223812 | 26 | 76 | 1.6 | 1.6 | 0.00 | 0.05 | 0.05 | 91 | 1011.4 |
| 20260905223310 | 26 | 110 | 1.6 | 3.2 | 0.00 | 0.05 | 0.05 | 91 | 1011.0 |
| 20260905222805 | 26 | 136 | 1.6 | 8.0 | 0.00 | 0.05 | 0.05 | 90 | 1011.0 |
| 20260905222306 | 26 | 62 | 1.6 | 8.0 | 0.00 | 0.05 | 0.05 | 90 | 1010.8 |
| 20260905221800 | 26 | 90 | 0.0 | 3.2 | 0.00 | 0.05 | 0.05 | 90 | 1010.9 |
| 20260905221256 | 26 | 117 | 4.8 | 4.8 | 0.00 | 0.05 | 0.05 | 90 | 1010.6 |
| 20260905220752 | 26 | 91 | 0.0 | 3.2 | 0.00 | 0.05 | 0.05 | 89 | 1010.7 |
| 20260905220248 | 26 | 82 | 1.6 | 3.2 | 0.00 | 0.05 | 0.05 | 89 | 1010.6 |
| 20260905215747 | 27 | 128 | 0.0 | 1.6 | 0.00 | 0.05 | 0.05 | 89 | 1010.5 |
| 20260905215243 | 26 | 89 | 0.0 | 1.6 | 0.00 | 0.05 | 0.05 | 88 | 1010.5 |
| 20260905214739 | 26 | 83 | 0.0 | 3.2 | 0.00 | 0.05 | 0.05 | 87 | 1010.4 |
| 20260905214235 | 27 | 196 | 1.6 | 3.2 | 0.00 | 0.05 | 0.05 | 86 | 1010.6 |
| 20260905213730 | 27 | 312 | 3.2 | 4.8 | 0.00 | 0.05 | 0.05 | 84 | 1010.4 |
| 20260905213226 | 27 | 90 | 0.0 | 1.6 | 0.00 | 0.05 | 0.05 | 84 | 1010.3 |
| 20260905212720 | 27 | 131 | 0.0 | 3.2 | 0.00 | 0.05 | 0.05 | 84 | 1010.4 |
| 20260905212219 | 27 | 93 | 1.6 | 3.2 | 0.00 | 0.05 | 0.05 | 84 | 1010.4 |
| 20260905211714 | 27 | 83 | 0.0 | 1.6 | 0.00 | 0.05 | 0.05 | 85 | 1010.4 |
| 20260905211209 | 28 | 78 | 0.0 | 3.2 | 0.00 | 0.05 | 0.05 | 84 | 1010.5 |
| 20260905210706 | 28 | 110 | 1.6 | 3.2 | 0.00 | 0.05 | 0.05 | 84 | 1010.5 |
| 20260905210206 | 28 | 117 | 0.0 | 3.2 | 0.00 | 0.05 | 0.05 | 83 | 1010.3 |
| 20260905205704 | 28 | 96 | 0.0 | 1.6 | 0.00 | 0.05 | 0.05 | 83 | 1010.4 |
| 20260905205159 | 28 | 81 | 0.0 | 3.2 | 0.00 | 0.05 | 0.05 | 82 | 1010.6 |
| 20260905204659 | 28 | 96 | 3.2 | 3.2 | 0.00 | 0.05 | 0.05 | 83 | 1010.5 |
| 20260905204154 | 28 | 96 | 0.0 | 3.2 | 0.00 | 0.05 | 0.05 | 84 | 1010.2 |
| 20260905203648 | 27 | 63 | 0.0 | 3.2 | 0.00 | 0.05 | 0.05 | 84 | 1010.2 |
| 20260905203144 | 28 | 95 | 1.6 | 4.8 | 0.00 | 0.05 | 0.05 | 84 | 1010.5 |
| 20260905202639 | 28 | 89 | 0.0 | 1.6 | 0.00 | 0.05 | 0.05 | 83 | 1010.4 |
| 20260905202135 | 29 | 100 | 4.8 | 12.9 | 0.00 | 0.05 | 0.05 | 81 | 1010.5 |
| 20260905201630 | 28 | 51 | 1.6 | 3.2 | 0.00 | 0.05 | 0.05 | 81 | 1010.5 |
| 20260905201130 | 28 | 96 | 0.0 | 1.6 | 0.00 | 0.05 | 0.05 | 83 | 1010.4 |
| 20260905200625 | 28 | 118 | 3.2 | 4.8 | 0.00 | 0.05 | 0.05 | 82 | 1010.5 |
| 20260905200120 | 29 | 86 | 1.6 | 3.2 | 0.00 | 0.05 | 0.05 | 81 | 1010.4 |
| 20260905195614 | 28 | 92 | 3.2 | 4.8 | 0.00 | 0.05 | 0.05 | 82 | 1010.8 |
| 20260905195109 | 28 | 79 | 1.6 | 1.6 | 0.00 | 0.05 | 0.05 | 84 | 1010.5 |
| 20260905194608 | 28 | 91 | 1.6 | 1.6 | 0.00 | 0.05 | 0.05 | 82 | 1010.5 |
| 20260905194108 | 29 | 68 | 3.2 | 9.7 | 0.00 | 0.05 | 0.05 | 82 | 1010.6 |
| 20260905193603 | 29 | 92 | 0.0 | 1.6 | 0.00 | 0.05 | 0.05 | 83 | 1010.5 |
| 20260905193058 | 28 | 75 | 0.0 | 1.6 | 0.00 | 0.05 | 0.05 | 84 | 1010.8 |
| 20260905192553 | 29 | 95 | 4.8 | 8.0 | 0.00 | 0.05 | 0.05 | 82 | 1010.6 |
| 20260905192050 | 30 | 88 | 0.0 | 1.6 | 0.00 | 0.05 | 0.05 | 79 | 1010.6 |
| 20260905191547 | 30 | 161 | 1.6 | 4.8 | 0.00 | 0.05 | 0.05 | 79 | 1010.5 |
| 20260905191042 | 30 | 103 | 1.6 | 1.6 | 0.00 | 0.05 | 0.05 | 81 | 1010.7 |
| 20260905190540 | 30 | 101 | 0.0 | 4.8 | 0.00 | 0.05 | 0.05 | 79 | 1010.4 |
| 20260905190039 | 30 | 96 | 0.0 | 4.8 | 0.00 | 0.05 | 0.05 | 78 | 1010.6 |
| 20260905185539 | 29 | 197 | 6.4 | 9.7 | 0.00 | 0.05 | 0.05 | 79 | 1010.6 |
| 20260905185038 | 29 | 104 | 4.8 | 8.0 | 0.00 | 0.05 | 0.05 | 80 | 1010.5 |
| 20260905184533 | 29 | 307 | 4.8 | 8.0 | 0.00 | 0.05 | 0.05 | 81 | 1010.7 |
| 20260905184032 | 30 | 108 | 0.0 | 1.6 | 0.00 | 0.05 | 0.05 | 81 | 1010.7 |
| 20260905183532 | 29 | 88 | 0.0 | 3.2 | 0.00 | 0.05 | 0.05 | 84 | 1010.7 |
| 20260905183027 | 30 | 178 | 1.6 | 3.2 | 0.00 | 0.05 | 0.05 | 82 | 1010.9 |
| 20260905182527 | 29 | 61 | 4.8 | 8.0 | 0.00 | 0.05 | 0.05 | 82 | 1010.6 |
| 20260905182027 | 28 | 334 | 1.6 | 8.0 | 0.00 | 0.05 | 0.05 | 82 | 1010.7 |
| 20260905181522 | 28 | 130 | 1.6 | 3.2 | 0.00 | 0.05 | 0.05 | 83 | 1010.8 |
| 20260905181021 | 30 | 91 | 1.6 | 3.2 | 0.00 | 0.05 | 0.05 | 82 | 1011.1 |
| 20260905180516 | 29 | 85 | 0.0 | 3.2 | 0.00 | 0.05 | 0.05 | 81 | 1010.8 |
| 20260905180012 | 28 | 78 | 1.6 | 8.0 | 0.00 | 0.05 | 0.05 | 85 | 1010.9 |
| 20260905175510 | 28 | 86 | 0.0 | 3.2 | 0.00 | 0.05 | 0.05 | 84 | 1010.9 |
| 20260905175006 | 29 | 297 | 1.6 | 3.2 | 0.00 | 0.05 | 0.05 | 85 | 1010.9 |
| 20260905174501 | 27 | 104 | 0.0 | 1.6 | 0.00 | 0.05 | 0.05 | 88 | 1010.8 |
| 20260905173957 | 28 | 83 | 1.6 | 8.0 | 0.00 | 0.05 | 0.05 | 85 | 1010.7 |
| 20260905173453 | 30 | 85 | 1.6 | 4.8 | 0.00 | 0.05 | 0.05 | 83 | 1011.0 |
| 20260905172948 | 29 | 90 | 0.0 | 1.6 | 0.00 | 0.05 | 0.05 | 86 | 1010.9 |
| 20260905172447 | 28 | 26 | 3.2 | 3.2 | 0.00 | 0.05 | 0.05 | 87 | 1011.1 |
| 20260905171942 | 28 | 85 | 0.0 | 0.0 | 0.00 | 0.05 | 0.05 | 84 | 1011.2 |
| 20260905171439 | 29 | 91 | 0.0 | 3.2 | 0.00 | 0.05 | 0.05 | 83 | 1011.1 |
| 20260905170935 | 29 | 53 | 0.0 | 1.6 | 0.00 | 0.05 | 0.05 | 83 | 1010.9 |
| 20260905170430 | 30 | 108 | 0.0 | 1.6 | 0.00 | 0.05 | 0.05 | 82 | 1011.1 |
| 20260905165930 | 28 | 92 | 1.6 | 3.2 | 0.00 | 0.05 | 0.05 | 84 | 1011.2 |
| 20260905165425 | 28 | 88 | 0.0 | 4.8 | 0.00 | 0.05 | 0.05 | 85 | 1011.1 |
| 20260905164920 | 28 | 113 | 0.0 | 1.6 | 0.00 | 0.05 | 0.05 | 86 | 1011.3 |
| 20260905164414 | 27 | 84 | 1.6 | 4.8 | 0.00 | 0.05 | 0.05 | 87 | 1011.2 |
| 20260905163909 | 27 | 92 | 3.2 | 3.2 | 0.00 | 0.05 | 0.05 | 87 | 1011.0 |
| 20260905163406 | 28 | 92 | 0.0 | 3.2 | 0.00 | 0.05 | 0.05 | 86 | 1011.1 |
| 20260905162902 | 28 | 103 | 0.0 | 4.8 | 0.00 | 0.05 | 0.05 | 85 | 1011.1 |
| 20260905162356 | 27 | 111 | 3.2 | 4.8 | 0.00 | 0.05 | 0.05 | 85 | 1011.3 |
| 20260905161851 | 28 | 94 | 1.6 | 3.2 | 0.00 | 0.05 | 0.05 | 87 | 1011.2 |
| 20260905161350 | 28 | 58 | 3.2 | 8.0 | 0.00 | 0.05 | 0.05 | 85 | 1011.2 |
| 20260905160848 | 28 | 74 | 6.4 | 8.0 | 0.00 | 0.05 | 0.05 | 86 | 1011.1 |
| 20260905160343 | 28 | 92 | 0.0 | 9.7 | 0.00 | 0.05 | 0.05 | 86 | 1011.0 |
| 20260905155837 | 28 | 140 | 3.2 | 4.8 | 0.00 | 0.05 | 0.05 | 86 | 1011.2 |
| 20260905155331 | 27 | 93 | 0.0 | 1.6 | 0.00 | 0.05 | 0.05 | 88 | 1011.2 |
| 20260905154830 | 27 | 94 | 0.0 | 1.6 | 0.00 | 0.05 | 0.05 | 88 | 1011.0 |
| 20260905154326 | 27 | 37 | 3.2 | 3.2 | 0.00 | 0.05 | 0.05 | 88 | 1011.1 |
| 20260905153821 | 27 | 106 | 0.0 | 1.6 | 0.00 | 0.05 | 0.05 | 88 | 1011.0 |
| 20260905153318 | 26 | 116 | 1.6 | 3.2 | 0.00 | 0.05 | 0.05 | 91 | 1011.5 |
| 20260905152818 | 26 | 37 | 1.6 | 3.2 | 0.00 | 0.05 | 0.05 | 93 | 1011.3 |
| 20260905152316 | 26 | 136 | 0.0 | 4.8 | 0.00 | 0.05 | 0.05 | 92 | 1011.2 |
| 20260905151812 | 25 | 88 | 1.6 | 3.2 | 0.00 | 0.05 | 0.05 | 95 | 1011.0 |
| 20260905151307 | 25 | 96 | 0.0 | 1.6 | 0.00 | 0.05 | 0.05 | 95 | 1011.2 |
| 20260905150802 | 25 | 86 | 0.0 | 1.6 | 0.00 | 0.05 | 0.05 | 96 | 1011.3 |
| 20260905150301 | 25 | 90 | 0.0 | 0.0 | 0.00 | 0.05 | 0.05 | 97 | 1011.1 |
| 20260905145758 | 25 | 97 | 0.0 | 1.6 | 0.00 | 0.05 | 0.05 | 97 | 1011.3 |
| 20260905145253 | 24 | 89 | 0.0 | 0.0 | 0.00 | 0.05 | 0.05 | 98 | 1011.2 |
| 20260905144751 | 24 | 85 | 0.0 | 0.0 | 0.00 | 0.05 | 0.05 | 98 | 1011.0 |
| 20260905144248 | 24 | 89 | 0.0 | 1.6 | 0.00 | 0.05 | 0.05 | 99 | 1011.2 |
| 20260905143746 | 23 | 92 | 0.0 | 1.6 | 0.00 | 0.05 | 0.05 | 98 | 1011.2 |
| 20260905143241 | 23 | 77 | 0.0 | 1.6 | 0.00 | 0.05 | 0.05 | 99 | 1011.4 |
| 20260905142739 | 23 | 88 | 0.0 | 0.0 | 0.00 | 0.05 | 0.05 | 99 | 1011.3 |
| 20260905142234 | 23 | 81 | 1.6 | 1.6 | 0.00 | 0.05 | 0.05 | 99 | 1011.5 |
| 20260905141730 | 23 | 98 | 0.0 | 0.0 | 0.00 | 0.05 | 0.05 | 99 | 1011.2 |
| 20260905141226 | 23 | 86 | 0.0 | 1.6 | 0.00 | 0.05 | 0.05 | 99 | 1011.4 |
| 20260905140721 | 23 | 90 | 0.0 | 1.6 | 0.00 | 0.05 | 0.05 | 99 | 1011.2 |
| 20260905140220 | 23 | 90 | 0.0 | 1.6 | 0.00 | 0.05 | 0.05 | 99 | 1011.2 |
| 20260905135715 | 23 | 94 | 0.0 | 0.0 | 0.00 | 0.05 | 0.05 | 99 | 1011.2 |
| 20260905135211 | 23 | 87 | 0.0 | 0.0 | 0.00 | 0.05 | 0.05 | 99 | 1011.2 |
| 20260905134710 | 23 | 94 | 0.0 | 0.0 | 0.00 | 0.05 | 0.05 | 99 | 1011.0 |
| 20260905134209 | 23 | 88 | 0.0 | 0.0 | 0.00 | 0.05 | 0.05 | 99 | 1011.0 |
| 20260905133704 | 22 | 92 | 0.0 | 0.0 | 0.00 | 0.05 | 0.05 | 99 | 1010.9 |
| 20260905133159 | 22 | 89 | 0.0 | 0.0 | 0.00 | 0.05 | 0.05 | 99 | 1011.0 |
| 20260905132658 | 22 | 88 | 0.0 | 0.0 | 0.00 | 0.05 | 0.05 | 99 | 1010.9 |
| 20260905132153 | 22 | 89 | 0.0 | 0.0 | 0.00 | 0.05 | 0.05 | 99 | 1010.8 |
| 20260905131643 | 22 | 105 | 0.0 | 0.0 | 0.00 | 0.05 | 0.05 | 99 | 1011.0 |
| 20260905131138 | 22 | 88 | 0.0 | 0.0 | 0.00 | 0.05 | 0.05 | 99 | 1011.0 |
| 20260905130633 | 22 | 88 | 0.0 | 0.0 | 0.00 | 0.05 | 0.05 | 99 | 1011.0 |
| 20260905130133 | 22 | 88 | 0.0 | 0.0 | 0.00 | 0.05 | 0.05 | 99 | 1010.8 |
| 20260905125632 | 22 | 95 | 0.0 | 0.0 | 0.00 | 0.05 | 0.05 | 99 | 1011.0 |
| 20260905125128 | 22 | 88 | 0.0 | 0.0 | 0.00 | 0.05 | 0.05 | 99 | 1010.7 |
| 20260905124624 | 22 | 89 | 0.0 | 0.0 | 0.00 | 0.05 | 0.05 | 99 | 1010.9 |
| 20260905124120 | 22 | 92 | 0.0 | 0.0 | 0.00 | 0.05 | 0.05 | 99 | 1010.8 |
| 20260905123610 | 22 | 91 | 0.0 | 0.0 | 0.00 | 0.05 | 0.05 | 99 | 1010.8 |
| 20260905123107 | 22 | 90 | 0.0 | 0.0 | 0.00 | 0.05 | 0.05 | 99 | 1010.6 |
| 20260905122606 | 22 | 99 | 0.0 | 0.0 | 0.00 | 0.05 | 0.05 | 99 | 1010.7 |
| 20260905122101 | 22 | 89 | 0.0 | 0.0 | 0.00 | 0.05 | 0.05 | 99 | 1010.5 |
| 20260905121555 | 22 | 88 | 0.0 | 0.0 | 0.00 | 0.05 | 0.05 | 99 | 1010.6 |
| 20260905121051 | 22 | 89 | 0.0 | 0.0 | 0.00 | 0.05 | 0.05 | 99 | 1010.5 |
| 20260905120550 | 22 | 89 | 0.0 | 0.0 | 0.00 | 0.05 | 0.05 | 99 | 1010.2 |
| 20260905120046 | 22 | 88 | 0.0 | 0.0 | 0.00 | 0.05 | 0.05 | 99 | 1010.3 |
| 20260905115544 | 22 | 96 | 0.0 | 0.0 | 0.00 | 0.05 | 0.05 | 99 | 1010.2 |
| 20260905115039 | 22 | 98 | 0.0 | 0.0 | 0.00 | 0.05 | 0.05 | 99 | 1009.8 |
| 20260905114538 | 22 | 88 | 0.0 | 0.0 | 0.00 | 0.05 | 0.05 | 99 | 1009.7 |
| 20260905114038 | 22 | 89 | 0.0 | 0.0 | 0.00 | 0.05 | 0.05 | 99 | 1009.9 |
| 20260905113532 | 22 | 89 | 0.0 | 0.0 | 0.00 | 0.05 | 0.05 | 99 | 1010.1 |
| 20260905113028 | 22 | 89 | 0.0 | 0.0 | 0.00 | 0.05 | 0.05 | 99 | 1010.1 |
| 20260905112523 | 22 | 89 | 0.0 | 0.0 | 0.00 | 0.05 | 0.05 | 99 | 1010.2 |
| 20260905112018 | 22 | 95 | 0.0 | 0.0 | 0.00 | 0.05 | 0.05 | 99 | 1009.7 |
| 20260905111513 | 22 | 105 | 0.0 | 0.0 | 0.00 | 0.05 | 0.05 | 99 | 1009.8 |
| 20260905111013 | 22 | 94 | 0.0 | 0.0 | 0.00 | 0.05 | 0.05 | 99 | 1009.8 |
| 20260905110512 | 22 | 92 | 0.0 | 0.0 | 0.00 | 0.05 | 0.05 | 99 | 1009.4 |
| 20260905110007 | 22 | 92 | 0.0 | 0.0 | 0.00 | 0.05 | 0.05 | 99 | 1009.3 |
| 20260905105501 | 22 | 92 | 0.0 | 0.0 | 0.00 | 0.05 | 0.05 | 99 | 1009.3 |
| 20260905105000 | 22 | 106 | 0.0 | 0.0 | 0.00 | 0.05 | 0.05 | 99 | 1009.4 |
| 20260905104457 | 22 | 102 | 0.0 | 0.0 | 0.00 | 0.05 | 0.05 | 99 | 1009.5 |